Regional Weather Roundup
Issued by NWS

Home | Current Version | Previous Version | Text Only | Print | Product List | Glossary Off
Versions: 1 2 3 4 5 6 7 8 9 10 11 12 13 14 15 16 17 18 19 20 21 22 23 24 25 26 27 28 29 30 31 32 33 34 35 36 37 38 39 40 41 42 43 44 45 46 47 48 49 50

237
ASUS43 KFSD 241210
RWRSD

WEATHER ROUNDUP FOR SOUTH DAKOTA
NATIONAL WEATHER SERVICE SIOUX FALLS SD
700 AM CDT SAT SEP 24 2016

NOTE: "FAIR" INDICATES FEW OR NO CLOUDS BELOW 12,000 FEET WITH NO
SIGNIFICANT WEATHER AND/OR OBSTRUCTIONS TO VISIBILITY.


SDZ001>005-009-010-012>017-241300-
NORTHWEST AND NORTH CENTRAL SOUTH DAKOTA

CITY           SKY/WX    TMP DP  RH WIND       PRES   REMARKS
BUFFALO          N/A     57  55  93 N12       29.65F
FAITH            N/A     59  59 100 S12       29.72R
MOBRIDGE       CLOUDY    71  60  68 SE17      29.70S
$$

SDZ012>016-024>037-041>051-057-063-072>074-241300-
SOUTHWEST AND SOUTH CENTRAL SOUTH DAKOTA

CITY           SKY/WX    TMP DP  RH WIND       PRES   REMARKS
RAPID CTY ARPT CLOUDY    56  53  90 SW5       29.77F
PIERRE         CLOUDY    67  62  84 S10       29.75R
CUSTER         CLOUDY    42  39  89 W15G28    29.88R
ELLSWORTH AFB  DRIZZLE   57  57 100 S13       29.77
PHILIP         CLOUDY    58  55  90 SW15      29.76F
PINE RIDGE     CLEAR     49  44  83 SW12      29.85F
WINNER         PTSUNNY   64  57  78 W3        29.78R
$$

SDZ004>011-016>023-039-040-241300-
NORTHEAST SOUTH DAKOTA

CITY           SKY/WX    TMP DP  RH WIND       PRES   REMARKS
ABERDEEN       CLEAR     70  62  76 S14G24    29.81S
WATERTOWN      CLEAR     68  64  87 SE15G23   29.89F
BROOKINGS      PTCLDY    68  64  87 SE14      29.93S
SISSETON         N/A     68  66  93 S14G21    29.90S
$$

SDZ017-020-022-023-036>040-048>070-241300-
SOUTHEAST SOUTH DAKOTA

CITY           SKY/WX    TMP DP  RH WIND       PRES   REMARKS
SIOUX FALLS    CLOUDY    70  65  84 SE8       29.93R THUNDER
HURON          MOCLDY    68  63  84 SE13      29.82S
CHAMBERLAIN    PTCLDY    69  65  88 SE9G17    29.77S
MITCHELL       PTCLDY    69  64  84 SE14      29.84S
YANKTON        CLEAR     70  64  83 E9        29.87R
$$

ABBREVIATIONS USED IN REMARKS
   TC - TEMPERATURE IN CELSIUS
  WCI - WIND CHILL INDEX
   HX - HEAT INDEX
  VSB - VISIBILITY





USA.gov is the U.S. government's official web portal to all federal, state and local government web resources and services.